Location: ?ern� Novina
(50.6762°N, 14.8696°E)
Time: 12:05:31
(UTC+00:00)

Cosmos 2322 Rocket - Pass Details

Date: 03 March 2021
Orbit: 832 x 852 km, 71.0° (Epoch: 16 April)

Event Time Altitude Azimuth Distance (km) Brightness Sun altitude
Rises 19:08:55 0° 236° (WSW) 3,370 5.8 -23.2°
Reaches altitude 10° 19:11:32 10° 245° (WSW) 2,440 5.2 -23.6°
Maximum altitude 19:16:41 36° 312° (NW) 1,291 3.6 -24.4°
Drops below altitude 10° 19:21:52 10° 19° (NNE) 2,460 4.6 -25.1°
Sets 19:24:32 0° 28° (NNE) 3,401 5.3 -25.5°
